Weather in Tetovo

North Macedonia     42°00′43″N   20°58′20″E
temp.,
°C
wind,
m/s
gust,
m/s
humid.,
%
clouds,
%
prec.,
mm/h
press.,
hPa
HPBL,
m
9 march, tue
tue901:00+2e2395100 1.0 1018193
04:00+1ene1197100 1.2 101896
07:00+1nne1191100 1.7 1018162
10:00+3ene1281100 0.3 1017460
13:00+3ene1183100 0.9 1016406
16:00+3nne1293100 1.1 1015225
19:00+3ne1196100 2.5 101699
22:00+3sse1197100 0.6 101592
10 march, wed
wed1001:00+3ssw1197100 0.6 101465
04:00+3sw129199 0.0 101226
07:00+4sw1293100 0.4 1012131
10:00+4s1295100 1.1 1012172
13:00+3nne1198100 10.1 1012143
16:00+2nne3398100 5.9 1013196
19:000n2393100 9.1 1015259
22:00−1n1288100 0.6 1017107
11 march, thu
thu1101:00−2n2289100 1.3 1019135
04:00−2n128999 0.4 1019212
07:00−3n128392 0.7 1021166
10:00+1ene237045 0.0 1022789
13:00+3e226556 0.1 1022930
16:00+3e216872 0.0 1022736
19:00−1s008657 0.0 102421
22:00−2w11810 0.0 102621
12 march, fri
fri1201:00−1wsw11732 0.0 102621
04:00−1ssw017435 0.0 102521
07:000s017242 0.0 102598
10:00+3se2270100 0.0 1024389
13:00+6se2267100 0.0 1023511
16:00+6e1174100 0.0 1021214
19:00+2ese0085100 0.0 102222
22:00+2wnw1175100 0.0 102222
13 march, sat
sat1301:00+1nne0175100 0.0 102122
04:00+1nnw0077100 0.0 102122
07:00+2sse0079100 0.0 102029
10:00+6ese2168100 0.0 1019286
13:00+9e2164100 0.0 1018496
16:00+8e1168100 0.0 1017445
19:00+5n0083100 0.1 101822
22:00+5nnw0086100 0.3 101852